This is the latest recevied weather packets stored in our database for station/object YD2CLX-13. If no packets are shown the sender has not sent any weather packets the latest 10 day(s).
| Time | Temp. | Humidity | Pressure | Rain* | Wind** | Luminosity | Snow |
|---|---|---|---|---|---|---|---|
| 1787407648 | 2.78° C | 58% | 800.4 hPa | 0 mm | - | - | - |
| 1787405165 | 3.33° C | 56% | 800.2 hPa | 0 mm | - | - | - |
| 1787402707 | 4.44° C | 59% | 799.9 hPa | 0 mm | - | - | - |
| 1787402093 | 5.56° C | 58% | 799.9 hPa | 0 mm | - | - | - |
| 1787400249 | 6.11° C | 59% | 799.6 hPa | 0 mm | - | - | - |
| 1787398411 | 6.67° C | 58% | 799.5 hPa | 0 mm | - | - | - |
| 1787397181 | 7.22° C | 59% | 799.2 hPa | 0 mm | - | - | - |
| 1787396567 | 7.78° C | 59% | 799.2 hPa | 0 mm | - | - | - |
| 1787394725 | 8.33° C | 58% | 799 hPa | 0 mm | - | - | - |
| 1787394110 | 8.33° C | 58% | 798.9 hPa | 0 mm | - | - | - |
| 1787392882 | 9.44° C | 58% | 798.9 hPa | 0 mm | - | - | - |
| 1787391654 | 10° C | 57% | 798.8 hPa | 0 mm | - | - | - |
| 1787384285 | 11.67° C | 55% | 798.5 hPa | 0 mm | - | - | - |
| 1787383671 | 12.22° C | 55% | 798.4 hPa | 0 mm | - | - | - |
| 1787383058 | 11.11° C | 55% | 798.5 hPa | 0 mm | - | - | - |
| 1787382447 | 11.67° C | 54% | 798.5 hPa | 0 mm | - | - | - |
| 1787381839 | 11.11° C | 55% | 798.6 hPa | 0 mm | - | - | - |
| 1787381231 | 11.67° C | 55% | 798.7 hPa | 0 mm | - | - | - |
| 1787380623 | 12.22° C | 54% | 798.8 hPa | 0 mm | - | - | - |
| 1787380015 | 12.78° C | 55% | 798.9 hPa | 0 mm | - | - | - |
| 1787379408 | 11.67° C | 54% | 799 hPa | 0 mm | - | - | - |
| 1787378192 | 14.44° C | 55% | 799.2 hPa | 0 mm | - | - | - |
| 1787376975 | 15° C | 57% | 799.3 hPa | 0 mm | - | - | - |
| 1787376366 | 15° C | 57% | 799.5 hPa | 0 mm | - | - | - |
| 1787375759 | 14.44° C | 57% | 799.6 hPa | 0 mm | - | - | - |
* Rain latest hour (hover to see other rain measurements)
** Current wind speed in m/s (hover to see current wind gust speed)